Location: Bathurst
(33.4193°S, 149.5775°E)
Time: 23:44:36
(UTC+10:00)

Vanguard 3 - Pass Details

Date: 27 June 2021
Orbit: 508 x 3261 km, 33.4° (Epoch: 25 July)

Event Time Altitude Azimuth Distance (km) Brightness Sun altitude
Rises 18:51:40 0° 269° (W) 6,380 13.0 -21.9°
Reaches altitude 10° 18:55:27 10° 268° (W) 5,623 12.4 -22.7°
Maximum altitude 19:14:25 89° 354° (N) 3,270 10.0 -26.6°
Enters shadow 19:25:02 38° 83° (E) 4,144 10.1 -28.7°
